RH
36 34 32 30 29 31 31 27 30 28 25 25 27 29 32 37 40 48 44 46 49 47 44 41 36 31 28 31 30 28 26 24 23 27 28 28 27 27 23 15 11 10 10 10 19 20 20 21 21
37 35 33 32 36 37 32 28 28 27 25 25 24 26 30 37 37 40 46 47 48 45 44 42 40 37 34 34 33 30 29 26 32 31 33 31 28 18 16 17 15 12 11 12 15 17 17 15 13
37 34 33 35 36 33 29 32 30 28 26 25 24 22 29 32 35 38 42 44 47 44 43 41 41 38 41 39 35 33 28 28 30 32 32 30 25 18 17 18 19 18 15 13 13 13 13 15 16
35 35 33 36 32 24 25 31 30 29 28 25 25 25 28 30 31 35 38 40 44 43 41 39 40 40 44 43 39 38 33 28 28 31 32 29 24 24 22 20 20 23 24 24 21 19 20 21 22
35 35 35 34 28 23 25 30 32 29 24 26 26 26 26 30 31 32 34 39 42 42 41 39 42 43 44 46 43 39 35 34 32 33 32 33 28 27 26 24 23 21 24 30 29 31 31 32 32
38 36 40 34 27 21 20 29 32 29 27 25 25 26 28 30 32 31 31 36 42 43 41 42 44 45 47 49 47 40 36 35 34 37 39 35 39 35 30 28 27 28 28 28 30 32 32 32 30
39 35 36 30 27 24 18 23 32 29 27 26 23 25 30 31 33 31 32 33 39 44 46 44 46 48 49 50 48 44 40 34 36 38 39 42 40 41 41 36 34 32 31 33 33 32 32 32 30
35 37 34 29 27 24 18 22 27 28 25 25 24 26 31 28 35 36 35 34 39 46 51 56 57 57 53 48 44 41 40 38 38 40 43 46 47 45 43 42 41 39 37 38 37 35 34 33 34
37 42 40 30 27 22 17 23 28 30 29 26 26 25 24 28 34 39 39 37 36 43 50 55 57 56 52 49 46 45 43 40 41 42 45 46 49 52 48 45 44 43 40 42 42 42 41 40 38
38 42 36 27 25 24 20 24 30 31 29 28 27 26 29 33 32 33 36 38 39 41 44 52 55 54 51 52 50 48 43 41 41 42 43 47 48 52 52 50 47 42 39 42 44 47 47 44 42
35 37 29 26 24 26 25 26 30 34 32 28 28 28 29 31 30 27 29 32 34 38 45 46 48 53 54 54 53 52 47 43 42 41 43 46 47 50 51 49 48 45 42 41 42 44 47 48 43
33 32 29 26 23 24 28 29 29 31 31 28 27 28 30 34 34 30 28 30 32 34 36 40 47 51 53 56 54 56 52 47 44 40 41 45 46 47 49 48 49 46 44 44 44 45 46 43 40
35 33 31 27 26 28 29 32 30 29 30 30 27 29 30 29 27 29 32 34 37 35 35 39 40 43 43 49 55 55 53 53 50 42 39 41 44 46 48 50 49 48 48 47 46 47 48 43 38
38 33 32 30 30 30 29 29 31 27 28 28 28 28 30 28 29 29 31 32 35 38 37 38 41 44 43 40 42 48 51 50 48 43 40 42 44 48 51 50 51 50 50 51 51 49 47 43 39
42 41 38 34 30 32 31 27 29 26 25 26 29 27 26 27 27 28 28 29 29 30 32 38 43 45 39 36 38 39 42 46 47 47 48 49 49 49 49 50 53 55 58 57 54 51 46 42 39
44 43 46 35 33 31 33 31 23 21 23 23 22 22 23 22 23 26 27 28 28 29 30 32 39 44 46 38 39 40 47 49 47 48 51 51 54 51 49 51 56 61 61 61 58 54 48 42 37
51 53 48 39 33 32 37 36 25 25 26 26 25 24 22 20 18 18 23 25 29 29 31 33 37 45 44 39 45 44 43 44 48 50 49 53 56 56 55 56 62 63 62 64 62 53 48 44 39
49 52 46 45 40 40 39 39 31 29 29 28 26 24 23 22 20 19 19 22 24 27 31 35 36 35 46 54 49 47 49 48 49 48 50 56 59 61 61 62 63 63 63 64 62 52 48 46 42
55 56 52 45 41 39 38 35 31 27 27 26 25 24 23 23 23 25 24 24 23 23 24 29 33 33 38 50 53 49 53 50 51 46 52 58 60 62 60 63 66 66 66 67 61 54 52 50 46
63 62 56 50 47 43 39 34 30 28 25 23 21 19 19 20 21 22 24 26 27 25 24 23 24 30 32 35 44 54 45 46 51 52 53 56 61 61 59 60 63 62 63 64 60 58 55 53 50
63 59 57 55 51 45 41 31 26 21 18 18 17 16 18 17 16 16 19 20 22 24 27 28 27 31 34 36 41 54 61 63 55 57 58 61 63 63 59 60 63 64 66 66 63 60 57 54 54
65 58 55 54 51 52 42 47 29 20 18 17 16 17 17 16 16 15 15 17 17 20 24 24 27 28 33 36 39 45 50 53 51 56 57 64 66 66 63 62 65 67 67 63 64 64 61 57 56
62 57 53 50 51 48 43 48 29 22 20 17 17 17 17 16 16 16 16 16 16 16 17 21 25 26 29 31 36 46 53 60 55 52 55 60 66 69 67 67 71 71 70 63 65 65 64 59 56
59 58 55 51 50 56 39 42 33 22 20 18 18 19 18 19 18 18 19 19 19 19 19 19 21 26 27 31 34 39 51 55 58 56 55 57 62 66 68 69 75 76 71 66 70 67 68 65 59
57 58 57 54 61 50 40 46 35 24 22 22 24 23 23 23 23 22 22 21 21 21 21 20 21 23 29 30 35 41 43 51 51 54 53 58 61 66 69 69 75 78 78 72 73 72 72 68 60
52 48 52 48 62 56 43 45 31 24 27 28 28 28 28 29 28 26 25 24 25 26 25 24 24 24 26 29 32 42 45 48 52 57 56 56 61 67 71 73 78 81 81 80 76 75 71 78 63
52 58 52 59 57 62 46 36 28 32 33 35 36 36 36 35 34 32 30 30 30 31 31 31 30 29 27 26 31 37 41 48 49 53 61 64 69 73 76 76 81 84 84 80 79 69 72 80 65
54 53 61 62 62 63 51 49 46 42 40 40 40 42 43 44 45 45 43 41 39 37 36 36 35 34 31 29 30 35 37 47 53 66 66 69 74 74 73 79 82 85 85 82 78 77 83 76 66
59 61 55 58 65 73 73 55 45 44 44 46 49 50 52 52 52 52 52 55 50 47 42 35 31 28 26 27 33 31 38 44 63 77 74 71 72 73 75 80 81 83 84 89 87 87 79 69 68
53 57 60 69 67 80 81 61 48 48 51 55 58 63 67 67 61 58 64 64 63 56 49 43 37 34 31 28 34 32 40 55 61 78 80 79 72 75 76 79 84 85 91 92 86 81 69 73 72